Location: David Mid Texas Observatory
(30.9664°N, 96.2113°W)
Time: 00:42:19
(UTC-06:00)

OTV 5 (USA 277) - Visible Passes

Search period start: 22 February 2018 00:00
Search period end: 04 March 2018 00:00
Orbit: 404 x 417 km, 43.0° (Epoch: 07 September)

Date Brightness Start Highest point End Pass type
(mag) Time Alt. Az. Time Alt. Az. Time Alt. Az.
22 Feb ? 05:51:51 24° NW 05:52:25 25° NNW 05:55:13 10° NE visible
23 Feb ? 05:03:20 17° NNE 05:03:20 17° NNE 05:04:20 10° NE visible
24 Feb ? 05:47:30 14° NNW 05:47:55 15° NNW 05:49:52 10° NNE visible
25 Feb ? 04:58:49 11° NNE 04:58:49 11° NNE 04:59:05 10° NNE visible
26 Feb ? 05:42:52 10° NNW 05:43:33 11° N 05:44:25 10° N visible
28 Feb ? 05:38:44 10° N 05:39:16 10° N 05:39:47 10° NNE visible
01 Mar ? 06:24:06 10° NNW 06:26:13 16° NNE 06:28:20 10° ENE visible
02 Mar ? 05:33:26 10° NNW 05:34:57 13° NNE 05:36:33 10° NE visible
03 Mar ? 06:18:46 10° NW 06:21:41 28° NNE 06:24:35 10° E visible
